Weather in Staraja Kupavna

Russia / Moscow Oblast     55°48′38″N   38°10′32″E
temp.,
°C
wind,
m/s
gust,
m/s
humid.,
%
clouds,
%
prec.,
mm/h
press.,
hPa
HPBL,
m
25 february, thu
thu2500:00−13s4895100 0.3 1027341
03:00−11ssw4995100 1.6 1024352
06:00−8ssw51195100 2.9 1018424
09:00−1sw51295100 4.3 1014524
12:00+2w514100100 0.4 1012471
15:00+2wnw513100100 0.4 1013551
18:00+2wnw310100100 0.0 1014356
21:00+1w26100100 0.0 1015157
26 february, fri
fri2600:00+1wsw3899100 0.1 1013252
03:00+2wsw311100100 1.1 1013321
06:00+2wsw411100100 0.8 1010354
09:00+2wsw41299100 1.1 1008369
12:00+3wsw514100100 0.4 1005503
15:00+3w61599100 1.0 1003788
18:00+2w6149192 0.1 1003956
21:00+1wnw7148894 0.1 10031037
27 february, sat
sat2700:00+1wnw6148889 0.1 10021042
03:00+1wnw6148688 0.1 10021069
06:000wnw5139085 0.0 1002631
09:000wnw5119289 0.1 1003650
12:00+1nw499499 0.0 1003696
15:00+1nw4992100 0.1 1005667
18:000nw4998100 0.2 1007507
21:00−1nw4997100 0.4 1009542
28 february, sun
sun2800:00−2nw399794 0.4 1010465
03:00−2nnw5109596 1.1 1011542
06:00−4nnw4109392 0.2 1013493
09:00−3nnw4109092 0.3 1015565
12:00−2nnw588494 0.1 1016823
15:00−2nnw588597 0.1 1018874
18:00−4nnw4889100 0.1 1019627
21:00−4n3786100 0.1 1022587
1 march, mon
mon100:00−5nnw3690100 0.1 1024380
03:00−5nw3689100 0.1 1025272
06:00−7nw239298 0.0 102748
09:00−6wnw249588 0.0 1028158
12:00−2w358581 0.0 1029546
15:00−1w488669 0.0 1028523
18:00−2w4109298 0.0 1027419
21:00−1w4119399 0.0 1026598